Simultaneous Nadir Overpasses (SNOs) Predictions

Prediction of SNOs between FY3D and NOAA-19 Satellite Orbit:

Table of predicted SNOs for the next 14.0 days since TLE Epoch: 5/4/2024
Index Date (FY3D) Time (FY3D) Lat,Lon (FY3D) SZA (FY3D ) Date (NOAA-19) Time (NOAA-19) Lat,Lon (NOAA-19) SZA (NOAA-19 ) Distance(km) Time Diff (sec)
1 05/16/2024 16:04:29 75.76, -61.75 56.36 05/16/2024 16:03:20 75.75, -63.98 56.36 61.09 69
2 05/16/2024 16:55:21 -76.08, 104.46 123.33 05/16/2024 16:54:18 -76.07, 104.41 123.33 1.36 63
3 05/16/2024 17:46:07 76.09, -88.26 56.68 05/16/2024 17:45:10 76.11, -88.18 56.70 3.06 57
4 05/16/2024 18:36:52 -76.09, 79.05 123.33 05/16/2024 18:36:16 -76.08, 78.94 123.34 3.18 36
5 05/16/2024 19:27:38 76.10,-113.67 56.67 05/16/2024 19:27:08 76.11,-113.66 56.69 1.65 30
6 05/16/2024 20:18:23 -76.10, 53.64 123.34 05/16/2024 20:18:13 -76.13, 53.63 123.31 3.29 10
7 05/16/2024 21:09:09 76.11,-139.08 56.67 05/16/2024 21:09:06 76.12,-139.13 56.68 1.70 3
8 05/16/2024 21:59:55 -76.15, 28.07 123.30 05/16/2024 22:00:11 -76.13, 28.15 123.32 3.11 16
9 05/16/2024 22:50:40 76.12,-164.49 56.66 05/16/2024 22:51:04 76.12,-164.61 56.66 3.14 24
10 05/16/2024 23:41:26 -76.16, 2.66 123.31 05/16/2024 23:42:09 -76.14, 2.68 123.33 2.78 43
11 05/17/2024 00:32:12 76.17, 169.94 56.70 05/17/2024 00:33:01 76.17, 170.08 56.70 3.86 49
12 05/17/2024 01:22:57 -76.17, -22.74 123.31 05/17/2024 01:24:06 -76.18, -22.63 123.30 3.43 69
13 05/17/2024 02:13:45 76.27, 144.20 56.78 05/17/2024 02:14:58 76.22, 144.77 56.73 16.23 73



Historial Predications of SNOs between FY3D and NOAA-19
